Location: Austin
(30.3000°N, 97.7500°W)
Time: 02:41:37
(UTC-05:00)

Resurs 01 Rocket - Pass Details

Date: 15 May 2024
Orbit: 630 x 640 km, 97.8° (Epoch: 30 May)

Event Time Altitude Azimuth Distance (km) Brightness Sun altitude
Exits shadow 21:24:57 16° 155° (SSE) 1,688 3.3 -13.5°
Maximum altitude 21:28:29 65° 77° (ENE) 706 1.6 -14.2°
Drops below altitude 10° 21:32:52 10° 355° (N) 2,034 4.7 -15.0°
Sets 21:35:06 0° 353° (N) 2,946 5.7 -15.4°
